EDT,Max TemperatureF,Mean TemperatureF,Min TemperatureF,Max Dew PointF,MeanDew PointF,Min DewpointF,Max Humidity, Mean Humidity, Min Humidity, Max Sea Level PressureIn, Mean Sea Level PressureIn, Min Sea Level PressureIn, Max VisibilityMiles, Mean VisibilityMiles, Min VisibilityMiles, Max Wind SpeedMPH, Mean Wind SpeedMPH, Max Gust SpeedMPH,PrecipitationIn, CloudCover, Events, WindDirDegrees
2012-9-1,90,80,70,70,68,64,93,69,45,30.03,30.00,29.97,10,9,7,8,5,,0.00,0,,298
2012-9-2,80,74,69,73,71,67,100,90,74,30.06,30.03,30.00,9,5,1,10,5,,0.02,6,Rain,101
2012-9-3,79,75,71,74,71,70,100,92,74,30.09,30.07,30.04,10,6,0,13,5,17,0.72,7,Fog-Rain-Thunderstorm,107
2012-9-4,84,78,73,76,74,72,100,90,74,30.05,29.99,29.89,10,6,2,8,2,,0.09,6,Rain-Thunderstorm,198
2012-9-5,86,78,71,75,73,71,100,88,67,29.88,29.83,29.78,10,6,0,17,5,25,0.61,6,Fog-Rain-Thunderstorm,230
2012-9-6,80,72,66,73,70,66,100,92,65,29.93,29.88,29.85,10,6,0,7,1,,0.02,4,Fog-Rain-Thunderstorm,172
2012-9-7,84,73,62,71,66,62,100,85,54,29.96,29.92,29.85,10,6,1,8,1,,0.00,1,,171
2012-9-8,86,74,64,74,70,61,96,84,57,29.89,29.77,29.61,10,10,2,26,5,50,0.25,7,Rain,217
2012-9-9,78,69,60,64,58,51,97,71,40,29.91,29.85,29.79,10,10,9,8,4,,0.02,1,Rain,314
2012-9-10,75,64,54,55,49,45,87,61,35,30.16,30.02,29.91,10,10,10,15,7,24,0.00,1,,323
2012-9-11,75,60,46,53,47,42,93,67,33,30.30,30.25,30.17,10,10,10,6,2,,0.00,0,,334
2012-9-12,78,62,48,57,52,47,97,73,40,30.38,30.34,30.31,10,10,10,6,1,,0.00,0,,155
2012-9-13,80,64,50,61,56,49,97,77,45,30.40,30.34,30.29,10,10,9,6,1,,0.00,0,,125
2012-9-14,80,65,51,63,57,50,97,77,39,30.29,30.21,30.11,10,10,10,6,1,,0.01,1,,223
2012-9-15,75,62,51,63,52,47,97,67,38,30.17,30.12,30.08,10,10,8,17,5,25,0.00,0,,322
2012-9-16,75,62,48,55,48,44,96,69,33,30.15,30.11,30.07,10,10,10,18,3,26,0.00,1,,269
2012-9-17,75,60,45,63,52,43,97,71,37,30.14,30.09,30.03,10,10,10,7,2,,0.00,1,,161
2012-9-18,81,72,68,72,68,64,96,87,76,30.00,29.80,29.69,10,8,1,17,8,32,0.71,7,Rain-Thunderstorm,193
2012-9-19,72,62,52,66,55,45,100,75,39,30.17,29.97,29.78,10,10,10,16,6,25,0.00,4,Rain,317
2012-9-20,75,60,46,55,50,45,97,75,43,30.18,30.14,30.09,10,10,10,8,1,,0.00,0,,109
2012-9-21,77,62,48,61,55,48,97,79,42,30.10,30.06,30.01,10,10,10,8,1,,0.01,1,,128
2012-9-22,82,68,55,67,62,54,97,80,56,30.00,29.89,29.81,10,9,2,12,3,18,0.15,2,Rain-Thunderstorm,232
2012-9-23,69,58,45,64,47,41,97,66,37,30.14,30.06,29.92,10,10,8,15,6,22,0.00,1,,308
2012-9-24,68,55,42,47,41,36,97,68,32,30.21,30.16,30.13,10,10,10,14,4,18,0.00,1,,299
2012-9-25,72,57,42,56,49,41,97,71,44,30.23,30.18,30.14,10,10,10,10,3,20,0.00,0,,199
2012-9-26,82,72,63,63,59,55,90,66,45,30.16,30.11,30.05,10,10,10,13,6,18,0.04,2,Rain,222
2012-9-27,78,70,64,64,63,61,93,80,60,30.20,30.13,30.07,10,10,7,17,4,25,0.01,3,Rain-Thunderstorm,270
2012-9-28,79,70,63,68,66,60,100,89,62,30.12,30.04,29.95,10,7,4,10,4,,0.06,6,Rain,185
2012-9-29,64,58,52,57,53,50,97,80,63,29.97,29.94,29.91,10,10,9,9,5,,0.02,5,Rain,287
2012-9-30,70,59,48,53,49,43,97,73,38,29.90,29.86,29.81,10,9,2,16,4,22,0.00,2,Rain,262